sat.trackr.live / text

‹ back to catalog

ICEYE-X55

NORAD 64581 · 2025-135BF

PAYLOAD ACTIVE UNKNOWN

§ Identity

Operator
Country
FIN
Launch date
2025-06-23
Launch site
AFWTR
Launch vehicle
Mass (kg)
RCS (m²)

External: N2YO · Heavens-Above · Gunter

§ Orbital elements

Epoch: 2026-05-25T03:26:11.107968Z

Period
96.32 min
Inclination
97.7718°
Eccentricity
0.0004642
Mean motion
14.95049337 rev/d
Perigee alt
579.0 km
Apogee alt
585.5 km
Semi-major
6,960.4 km
B*
2.9002e-4
RAAN
260.1462°
Arg perigee
77.3693°
Mean anomaly
282.8047°
Rev number
5,047

§ Raw data

ICEYE-X551 64581U 25135BF  26145.14318412  .00003118  00000+0  29002-3 0  99902 64581  97.7718 260.1462 0004642  77.3693 282.8047 14.95049337 50479

JSON: /api/v1/satellites/64581 · /tle

For live sub-satellite position, see the globe view (requires WebGL).

§ Visibility from observer

Set your observer location to see the next 7 days of passes ≥ 10°. The values pass through the URL so the page stays shareable.

No JS? Fill the form by hand. The geolocation button needs JavaScript.

§ Radio — SatNOGS DB

ModeDescriptionDownlinkUplink
FM S-band telemetry 2.270 GHz

1 transmitter · refreshed weekly from db.satnogs.org